AirNav   Pilot Hours Calculator
 
 655 users online  

XS77 Seafood Warehouse Park Airport
Crystal Beach, Texas, USA

GOING TO CRYSTAL BEACH?


FAA INFORMATION EFFECTIVE 23 MAY 2019

Location

FAA Identifier: XS77
Lat/Long: 29-27-55.8360N / 094-37-38.6950W
29-27.930600N / 094-37.644917W
29.4655100 / -94.6274153
(estimated)
Elevation: 9 ft. / 3 m (estimated)
Variation: 06E (1985)
From city: 1 mile N of CRYSTAL BEACH, TX
Time zone: UTC -5 (UTC -6 during Standard Time)
Zip code: 77650

Airport Operations

Airport use: Private use. Permission required prior to landing
Activation date: 06/1991
Control tower: no
ARTCC: HOUSTON CENTER
FSS: MONTGOMERY COUNTY FLIGHT SERVICE STATION
Attendance: UNATNDD
Wind indicator: yes
Segmented circle: no

Airport Communications

WX ASOS at GLS (17 nm SW): 119.275 (409-740-9248)

Nearby radio navigation aids

VOR radial/distance  VOR name  Freq  Var
MHFr121/7.9TRINITY VOR/DME113.6007E
VUHr041/17.2SCHOLES VOR/DME113.0006E
SBIr240/33.5SABINE PASS VOR/DME115.4007E
HUBr104/35.8HOBBY VOR/DME117.1005E

 
NDB name  Hdg/Dist  Freq  Var  ID
GALVESTON032/10.420608EGLS --. .-.. ...

Airport Services

Fuel available: 100LL

Runway Information

Runway 12/30

Dimensions: 2200 x 75 ft. / 671 x 23 m
Surface: turf
RUNWAY 12  RUNWAY 30
Traffic pattern: leftleft

Airport Ownership and Management from official FAA records

Ownership: Privately-owned
Owner: PATRICK A. ROGERS
PO BOX 2160
CRYSTAL BEACH, TX 77650
Phone 409-684-3553
Manager: PATRICK A. ROGERS
PO BOX 2160
CRYSTAL BEACH, TX 77650
Phone 409-684-3553

Airport Operational Statistics

Aircraft based on the field: 6
Single engine airplanes: 4
Multi engine airplanes: 2
    

Instrument Procedures

There are no published instrument procedures at XS77.

Some nearby airports with instrument procedures:

KGLS - Scholes International Airport at Galveston (17 nm SW)
T00 - Chambers County Airport (18 nm N)
54T - RWJ Airpark (21 nm NW)
KHPY - Baytown Airport (26 nm NW)
T41 - La Porte Municipal Airport (26 nm NW)
 
Loc | Ops | Rwys | IFR | FBO | Links
Com | Nav | Svcs | Stats | Notes
Area around XS77 (Seafood Warehouse Park Airport)
 
Road maps at: MapQuest Bing Google
 
Aerial photo
No photo
 
Sectional chart

 
Airport distance calculator
Flying to Seafood Warehouse Park Airport? Find the distance to fly.

From to XS77

Sunrise and sunset
Times for 15-Jun-2019
 Local
(UTC-5)
 Zulu
(UTC)
Morning civil twilight05:5210:52
Sunrise06:1911:19
Sunset20:1901:19
Evening civil twilight20:4601:46

Current date and time
Zulu (UTC)  16-Jun-2019 03:44:01
Local (UTC-5)  15-Jun-2019 22:44:01
 
METAR
KGLS 
17nm SW 
160252Z AUTO 16016KT 10SM SCT022 BKN030 27/24 A2993 RMK AO2 SLP134 T02720244 53006
KXIH 
18nm S 
160315Z AUTO 17021KT 10SM SCT022 BKN028 29/24 A2993 RMK A01
KEFD 
29nm W 
160250Z 16009KT 10SM FEW030 FEW250 28/23 A2989
KLVJ 
33nm W 
160253Z AUTO 16007KT 10SM CLR 28/24 A2992 RMK AO2 SLP132 T02830239 53008
TAF
KGLS 
17nm SW 
151739Z 1518/1618 19015G23KT P6SM FEW025 SCT035 FM160000 18015KT P6SM SCT009 BKN150 FM160400 17018G26KT P6SM FEW010 SCT120 FM161300 18018G26KT P6SM VCSH SCT010 BKN060 FM161500 17017KT P6SM VCSH SCT012 BKN028 FM161700 17017KT P6SM VCSH SCT018 BKN035
NOTAMs
Click for the latest NOTAMs
NOTAMs are issued by the DoD/FAA and will open in a separate window not controlled by AirNav.

 

 
 

Would you like to see your business listed on this page?

 If your business provides an interesting product or service to pilots, flight crews, aircraft, or users of the Seafood Warehouse Park Airport, you should consider listing it here.  To start the listing process, click on the button below
 
Add a business
 

Other Pages about Seafood Warehouse Park Airport

Update a link
 
Copyright © AirNav, LLC. All rights reserved. Privacy Policy  Contact